TimeCST,TemperatureF,Dew PointF,Humidity,Sea Level PressureIn,VisibilityMPH,Wind Direction,Wind SpeedMPH,Gust SpeedMPH,PrecipitationIn,Events,Conditions,WindDirDegrees,DateUTC
12:53 AM,37.9,26.1,62,30.39,10.0,South,11.5,-,N/A,,Clear,170,2012-11-14 06:53:00
1:53 AM,37.0,26.1,65,30.40,10.0,South,11.5,-,N/A,,Clear,170,2012-11-14 07:53:00
2:53 AM,36.0,27.0,70,30.40,10.0,South,11.5,-,N/A,,Clear,170,2012-11-14 08:53:00
3:53 AM,37.0,27.0,67,30.39,10.0,South,10.4,-,N/A,,Overcast,180,2012-11-14 09:53:00
4:53 AM,36.0,27.0,70,30.40,10.0,South,5.8,-,N/A,,Overcast,170,2012-11-14 10:53:00
5:53 AM,35.1,27.0,72,30.39,10.0,South,6.9,-,N/A,,Mostly Cloudy,170,2012-11-14 11:53:00
6:53 AM,35.1,27.0,72,30.40,10.0,South,9.2,-,N/A,,Mostly Cloudy,170,2012-11-14 12:53:00
7:53 AM,37.0,27.0,67,30.40,10.0,South,9.2,-,N/A,,Partly Cloudy,170,2012-11-14 13:53:00
8:53 AM,39.0,28.9,67,30.41,10.0,South,11.5,-,N/A,,Clear,190,2012-11-14 14:53:00
9:53 AM,46.0,30.0,54,30.41,10.0,SSW,10.4,-,N/A,,Clear,200,2012-11-14 15:53:00
10:53 AM,51.1,28.9,43,30.39,10.0,SSW,9.2,-,N/A,,Clear,210,2012-11-14 16:53:00
11:53 AM,54.0,28.0,37,30.36,10.0,South,10.4,-,N/A,,Clear,190,2012-11-14 17:53:00
12:53 PM,55.9,27.0,33,30.34,10.0,SSW,9.2,-,N/A,,Clear,200,2012-11-14 18:53:00
1:53 PM,57.0,26.1,30,30.32,10.0,South,15.0,23.0,N/A,,Clear,190,2012-11-14 19:53:00
2:53 PM,55.9,23.0,28,30.30,10.0,SSW,12.7,-,N/A,,Clear,200,2012-11-14 20:53:00
3:53 PM,54.0,24.1,31,30.31,10.0,SSW,9.2,-,N/A,,Clear,200,2012-11-14 21:53:00
4:53 PM,45.0,25.0,46,30.30,10.0,South,5.8,-,N/A,,Clear,190,2012-11-14 22:53:00
5:53 PM,42.1,27.0,55,30.30,10.0,South,8.1,-,N/A,,Clear,170,2012-11-14 23:53:00
6:53 PM,42.1,27.0,55,30.31,10.0,South,8.1,-,N/A,,Clear,170,2012-11-15 00:53:00
7:53 PM,39.9,28.0,63,30.31,10.0,South,6.9,-,0.00,,Clear,170,2012-11-15 01:53:00
8:53 PM,39.9,28.0,63,30.31,10.0,South,8.1,-,N/A,,Clear,170,2012-11-15 02:53:00
9:53 PM,41.0,28.9,62,30.30,10.0,SSE,9.2,-,N/A,,Clear,160,2012-11-15 03:53:00
10:53 PM,41.0,28.9,62,30.30,10.0,South,9.2,-,N/A,,Clear,170,2012-11-15 04:53:00
11:53 PM,39.9,28.9,65,30.30,10.0,South,9.2,-,N/A,,Clear,180,2012-11-15 05:53:00